Location: Unspecified
(35.7250°N, 0.0000°E)
Time: 04:39:22
(UTC+00:00)

Tiros 1 - Pass Details

Date: 01 July 2019
Orbit: 630 x 664 km, 48.4° (Epoch: 19 July)

Event Time Altitude Azimuth Distance (km) Brightness Sun altitude
Rises 03:19:03 0° 295° (WNW) 2,929 10.3 -15.2°
Reaches altitude 10° 03:21:43 10° 281° (WNW) 2,012 9.4 -14.8°
Maximum altitude 03:25:26 24° 228° (SW) 1,297 8.1 -14.3°
Drops below altitude 10° 03:29:08 10° 174° (S) 1,996 9.3 -13.7°
Sets 03:31:47 0° 160° (SSE) 2,898 10.3 -13.3°
